Location: Peterborough
(44.3091°N, 78.3197°W)
Time: 19:02:01
(UTC-04:00)

Explorer 11/Cluster Stage 4 - Pass Details

Date: 27 March 2023
Orbit: 466 x 1237 km, 28.8° (Epoch: 06 June)

Event Time Altitude Azimuth Distance (km) Brightness Sun altitude
Rises 10:37:13 0° 242° (WSW) 3,077 9.4 35.2°
Reaches altitude 10° 10:40:43 10° 216° (SW) 2,330 9.1 35.7°
Maximum altitude 10:43:23 14° 187° (S) 2,209 9.4 36.1°
Drops below altitude 10° 10:46:19 10° 159° (SSE) 2,597 10.2 36.5°
Sets 10:50:39 0° 136° (SE) 3,734 11.0 37.1°
